Home   Weather   San Salvador   Past weeks

Flag for El Salvador Past Weather in San Salvador, El Salvador — Yesterday and Last 2 Weeks

Now
88 °F

Passing clouds.


Feels Like: 90 °F
Forecast: 69 / 88 °F
Wind: 7 mph from Southeast

Location: San Salvador / Ilopango

Current Time: Apr 30, 2017 at 10:53:47 am

Latest Report: Apr 30, 2017 at 9:50 am


Visibility: N/A

Pressure: 29.95 "Hg (27.79 "Hg at 667m altitude)

Humidity: 49%

Dew Point: 66 °F

Location of San SalvadorLocation

Past Weather in San Salvador — Graph

°F

San Salvador Temperature Yesterday

Maximum temperature yesterday: 90 °F (at 1:50 pm)
Minimum temperature yesterday: 75 °F (at 5:50 am)
Average temperature yesterday: 82 °F

High & Low Weather Summary for the Past Weeks

 TemperatureHumidityPressure
High93 °F (Apr 23, 12:50 pm)100% (Apr 24, 2:50 pm)30.04 "Hg (Apr 24, 2:50 pm)
Low66 °F (Apr 22, 5:50 am)28% (Apr 15, 12:50 pm)29.86 "Hg (Apr 21, 4:50 pm)
Average80 °F65%29.95 "Hg
* Reported Apr 15 8:50 am — Apr 30 8:50 am, San Salvador, Weather by CustomWeather, © 2017

Note: Actual official high and low records may vary slightly from our data, if they occured in-between our weather recording intervals... More about our weather records

Advertising

San Salvador Weather History for the Previous 24 Hours

Scroll right to see more
 ConditionsComfort  
Time TempWeatherWind HumidityBarometerVisibility
8:50 am
Sun, Apr 30
84 °FSunny.3 mph55%29.98 "Hg10 mi
7:50 am82 °FSunny.3 mph58%29.95 "Hg10 mi
5:50 am75 °FSunny.2 mph83%29.95 "Hg10 mi
11:50 pm
Sat, Apr 29
77 °FClear.5 mph79%29.98 "Hg10 mi
10:50 pm79 °FClear.5 mph74%29.98 "Hg10 mi
9:50 pm79 °FClear.5 mph74%29.98 "Hg10 mi
8:50 pm79 °FClear.2 mph74%29.98 "Hg10 mi
7:50 pm79 °FPassing clouds.6 mph74%29.95 "HgN/A
6:50 pm81 °FPassing clouds.6 mph70%29.92 "HgN/A
5:50 pm81 °FSunny.12 mph79%29.92 "Hg10 mi
4:50 pm81 °FPartly sunny.14 mph70%29.92 "HgN/A
3:50 pm86 °FScattered clouds.8 mph59%29.92 "HgN/A
2:50 pm88 °FScattered clouds.5 mph55%29.92 "HgN/A
1:50 pm90 °FScattered clouds.5 mph52%29.95 "HgN/A
12:50 pm88 °FScattered clouds.8 mph49%29.98 "Hg5 mi
11:50 am88 °FPartly sunny.6 mph52%29.98 "Hg4 mi
10:50 am88 °FPartly sunny.7 mph52%30.01 "Hg4 mi
Weather by CustomWeather, © 2017

See weather overviewHow to use our weather pages